TimeCST,TemperatureF,Dew PointF,Humidity,Sea Level PressureIn,VisibilityMPH,Wind Direction,Wind SpeedMPH,Gust SpeedMPH,PrecipitationIn,Events,Conditions,WindDirDegrees,DateUTC
12:53 AM,30.9,26.1,82,30.20,10.0,NNW,16.1,-,N/A,,Overcast,340,2013-02-28 06:53:00
1:53 AM,30.0,25.0,82,30.21,10.0,North,16.1,-,N/A,,Overcast,350,2013-02-28 07:53:00
2:53 AM,30.0,25.0,82,30.22,10.0,NNW,16.1,-,N/A,,Overcast,340,2013-02-28 08:53:00
3:53 AM,30.0,25.0,82,30.22,10.0,NNW,11.5,-,N/A,,Overcast,330,2013-02-28 09:53:00
4:53 AM,30.0,24.1,79,30.22,10.0,NNW,23.0,26.5,N/A,,Overcast,330,2013-02-28 10:53:00
5:53 AM,28.9,23.0,78,30.24,10.0,NNW,17.3,-,N/A,,Overcast,340,2013-02-28 11:53:00
6:53 AM,28.9,24.1,82,30.24,10.0,NNW,15.0,21.9,N/A,,Overcast,340,2013-02-28 12:53:00
7:53 AM,28.9,24.1,82,30.25,9.0,NNW,13.8,-,N/A,,Overcast,330,2013-02-28 13:53:00
8:53 AM,28.9,24.1,82,30.27,10.0,North,17.3,-,N/A,,Overcast,350,2013-02-28 14:53:00
9:24 AM,28.4,24.8,86,30.22,10.0,North,18.4,-,N/A,,Overcast,350,2013-02-28 15:24:00
9:53 AM,28.9,24.1,82,30.28,10.0,North,17.3,-,N/A,,Overcast,350,2013-02-28 15:53:00
10:53 AM,30.0,24.1,79,30.30,10.0,North,18.4,-,N/A,,Overcast,350,2013-02-28 16:53:00
11:17 AM,30.2,24.8,80,30.23,10.0,NNW,17.3,-,N/A,,Overcast,340,2013-02-28 17:17:00
11:53 AM,30.0,24.1,79,30.29,10.0,NNW,15.0,-,N/A,,Overcast,340,2013-02-28 17:53:00
12:53 PM,30.9,24.1,76,30.29,10.0,NNW,16.1,-,N/A,,Overcast,340,2013-02-28 18:53:00
1:53 PM,32.0,24.1,73,30.26,10.0,NNW,17.3,-,N/A,,Overcast,340,2013-02-28 19:53:00
2:53 PM,32.0,24.8,75,30.20,10.0,NNW,13.8,-,N/A,,Overcast,340,2013-02-28 20:53:00
3:53 PM,32.0,25.0,75,30.26,10.0,NNW,13.8,-,N/A,,Overcast,340,2013-02-28 21:53:00
4:53 PM,30.9,25.0,79,30.25,10.0,NNW,13.8,-,N/A,,Overcast,340,2013-02-28 22:53:00
5:53 PM,30.0,24.1,79,30.27,10.0,North,13.8,-,N/A,,Overcast,350,2013-02-28 23:53:00
6:53 PM,30.0,24.1,79,30.29,10.0,NNW,11.5,-,N/A,,Overcast,340,2013-03-01 00:53:00
7:53 PM,30.0,23.0,75,30.29,10.0,North,11.5,-,N/A,,Overcast,350,2013-03-01 01:53:00
8:53 PM,28.9,24.1,82,30.29,10.0,North,12.7,-,N/A,,Overcast,350,2013-03-01 02:53:00
9:53 PM,28.0,23.0,81,30.30,10.0,North,8.1,-,N/A,,Overcast,10,2013-03-01 03:53:00
10:53 PM,28.0,23.0,81,30.29,10.0,North,9.2,-,N/A,,Overcast,10,2013-03-01 04:53:00
11:53 PM,27.0,23.0,85,30.29,10.0,North,5.8,-,N/A,,Overcast,10,2013-03-01 05:53:00